Location: *
(46.1333°S, 161.2167°W)
Time: 04:23:59
(UTC+00:00)

SKYMED 2 - Pass Details

Date: 15 July 2020
Orbit: 621 x 623 km, 97.9° (Epoch: 10 August)

Event Time Altitude Azimuth Distance (km) Brightness Sun altitude
Rises 17:13:17 0° 170° (S) 2,950 6.9 -11.5°
Reaches altitude 10° 17:15:31 10° 173° (S) 2,035 6.1 -11.2°
Maximum altitude 17:19:54 62° 253° (WSW) 717 3.6 -10.4°
Drops below altitude 10° 17:24:13 10° 333° (NNW) 2,007 6.1 -9.7°
Sets 17:26:24 0° 336° (NNW) 2,906 7.0 -9.4°
